Regional Weather Roundup
Issued by NWS

Home | Current Version | Previous Version | Graphics & Text | Print | Product List | Glossary On
Versions: 1 2 3 4 5 6 7 8 9 10 11 12 13 14 15 16 17 18 19 20 21 22 23 24 25 26 27 28 29 30 31 32 33 34 35 36 37 38 39 40 41 42 43 44 45 46 47 48 49 50
000
ASUS43 KIND 300409
RWRIN

WEATHER ROUNDUP FOR INDIANA
NATIONAL WEATHER SERVICE INDIANAPOLIS IN
1200 AM EDT THU MAR 30 2017

NOTE: "FAIR" INDICATES FEW OR NO CLOUDS BELOW 12,000 FEET WITH NO
SIGNIFICANT WEATHER AND/OR OBSTRUCTIONS TO VISIBILITY.

* - STATION DOES NOT REPORT WEATHER SUCH AS PRECIPITATION OR FOG.

+ - STATION NOT QUALITY CONTROLLED BY THE NATIONAL WEATHER SERVICE.
    USE DATA WITH CAUTION...ESPECIALLY DEWPOINT AND RELATIVE
    HUMIDITY OBSERVATIONS.

INZ001>003-010>013-019-020-300500-
NORTHWEST INDIANA

CITY           SKY/WX    TMP DP  RH WIND       PRES   REMARKS
GARY /AIRPORT/ LGT RAIN  45  38  78 NE15      30.03F
KNOX *+        CLOUDY    46  14  27 E9G22     30.06R
LA PORTE +     LGT RAIN  46  36  69 E15       30.07S
MICHIGAN CITY+ CLOUDY    45  37  76 E5        30.07F
MONTICELLO +   CLOUDY    48  38  68 E7        30.00F
RENSSELAER +   CLOUDY    46  39  76 E20       30.01F
VALPARAISO     CLOUDY    47  36  65 E17       30.04F

$$

LMZ046-743>745-300500-
SOUTHERN LAKE MICHIGAN

STATION/POSITION TIME  TEMP    WIND        PRES    WAVE
                       AIR SEA DIR/SP/G            HT
                 (UTC) (F)     (DEG/KT/KT) (MB)    (FT)
BURNS HARBOR     0340   45      80/ 12/ 14 1018.3S
MICHIGAN CITY    0340   47      70/ 13/ 14   N/A

$$

INZ004-005-014>016-021>024-300500-
NORTH CENTRAL INDIANA

CITY           SKY/WX    TMP DP  RH WIND       PRES   REMARKS
GOSHEN         LGT RAIN  47  33  58 E17       30.07F
LOGANSPORT +   CLOUDY    45  37  76 E13G22    30.03R
PERU/GRISSOM   CLOUDY    46  39  76 E20       30.00S
ROCHESTER +    CLOUDY    48  37  66 E15G24    30.06S
SOUTH BEND     CLOUDY    47  34  60 E10G21    30.09S
WARSAW +       CLOUDY    46  34  61 E16G22    30.05F

$$

INZ006>009-017-018-025>027-300500-
NORTHEAST INDIANA

CITY           SKY/WX    TMP DP  RH WIND       PRES   REMARKS
ANGOLA *+      CLOUDY    46  32  57 E17       30.10F
AUBURN +       CLOUDY    46  32  57 E16G23    30.10F
FORT WAYNE     CLOUDY    47  34  60 NE12      30.12R
HUNTINGTON +   LGT RAIN  44  37  75 E10G17    30.07R
KENDALLVILLE + DRIZZLE   46  35  66 E10G21    30.10S

$$

INZ028-029-035-036-043>045-051>053-300500-
WEST CENTRAL INDIANA

CITY           SKY/WX    TMP DP  RH WIND       PRES   REMARKS
CRAWFORDSVL +  CLOUDY    52  45  78 E14       29.96F
GREENCASTLE +  CLOUDY    54  43  66 E15       29.94F
LAFAYETTE      LGT RAIN  50  44  80 E12       29.98S
TERRE HAUTE    CLOUDY    56  46  69 E14       29.90F

$$

INZ030>032-037>040-046>048-054>057-064-065-300500-
CENTRAL INDIANA

CITY           SKY/WX    TMP DP  RH WIND       PRES   REMARKS
CP ATTERBURY + CLOUDY    54  45  71 SE7       29.99F
FRANKFORT +    CLOUDY    54  45  70 E12G17    30.00S
GREENWOOD *+   CLOUDY    54  44  68 SE13      29.97F
INDIANAPOLIS   CLOUDY    55  43  63 SE16G25   29.97F
-EAGLE CREEK   MOCLDY    55  42  61 SE10G21   29.96F
KOKOMO +       CLOUDY    48  39  71 E14       30.02S
MARION +       CLOUDY    48  37  65 E15       30.04R
MT COMFORT *+  PTCLDY    54  43  66 SE14G22   29.97F
SHELBYVILLE    CLOUDY    54  42  64 SE13      29.97F
ZIONSVILLE +   MOCLDY    53  42  67 SE14G20   29.97F

$$

INZ033-034-041-042-049-050-058-059-300500-
EAST CENTRAL INDIANA

CITY           SKY/WX    TMP DP  RH WIND       PRES   REMARKS
MUNCIE         MOCLDY    50  41  71 E16       30.00F
RICHMOND +     PTCLDY    46  41  81 E9        30.02F

$$

INZ060-061-067>069-081>083-085>088-300500-
SOUTHWEST INDIANA

CITY           SKY/WX    TMP DP  RH WIND       PRES   REMARKS
EVANSVILLE     CLOUDY    62  51  67 E8        29.87F
HUNTINGBURG *+ CLOUDY    60  51  72 E16       29.89F
WASHINGTON +   CLOUDY    57  47  67 MISG      29.89F

$$

INZ062-063-066-070>080-084-089>092-300500-
SOUTH CENTRAL AND SOUTHEAST INDIANA

CITY           SKY/WX    TMP DP  RH WIND       PRES   REMARKS
BEDFORD +      MOCLDY    55  45  67 E14       29.95F
BLOOMINGTON    CLOUDY    56  45  66 SE17G23   29.93F
MADISON *+     PTCLDY    54  43  66 E12       29.99F
SEYMOUR +      CLOUDY    55  45  67 SE7       29.98F

$$




USA.gov is the U.S. government's official web portal to all federal, state and local government web resources and services.